Index of /20260430/WXO-DD/model_gdps/15km/12/078
Name Last modified Size Description
Parent Directory -
20260430T12Z_MSC_GDPS_AbsoluteVorticity_IsbL-0200_LatLon0.15_PT078H.grib2 2026-04-30 16:13 1.5M
20260430T12Z_MSC_GDPS_AbsoluteVorticity_IsbL-0250_LatLon0.15_PT078H.grib2 2026-04-30 16:13 1.3M
20260430T12Z_MSC_GDPS_AbsoluteVorticity_IsbL-0500_LatLon0.15_PT078H.grib2 2026-04-30 16:13 1.4M
20260430T12Z_MSC_GDPS_AbsoluteVorticity_IsbL-0700_LatLon0.15_PT078H.grib2 2026-04-30 16:13 1.6M
20260430T12Z_MSC_GDPS_AbsoluteVorticity_IsbL-0850_LatLon0.15_PT078H.grib2 2026-04-30 16:13 1.6M
20260430T12Z_MSC_GDPS_AirTemp-Max_AGL-2m_LatLon0.15_PT078H.grib2 2026-04-30 16:13 745K
20260430T12Z_MSC_GDPS_AirTemp-Min_AGL-2m_LatLon0.15_PT078H.grib2 2026-04-30 16:13 793K
20260430T12Z_MSC_GDPS_AirTemp_AGL-120m_LatLon0.15_PT078H.grib2 2026-04-30 16:13 908K
20260430T12Z_MSC_GDPS_AirTemp_AGL-2m_LatLon0.15_PT078H.grib2 2026-04-30 16:13 1.0M
20260430T12Z_MSC_GDPS_AirTemp_AGL-40m_LatLon0.15_PT078H.grib2 2026-04-30 16:13 814K
20260430T12Z_MSC_GDPS_AirTemp_AGL-80m_LatLon0.15_PT078H.grib2 2026-04-30 16:13 801K
20260430T12Z_MSC_GDPS_AirTemp_IsbL-0001_LatLon0.15_PT078H.grib2 2026-04-30 16:13 658K
20260430T12Z_MSC_GDPS_AirTemp_IsbL-0005_LatLon0.15_PT078H.grib2 2026-04-30 16:13 687K
20260430T12Z_MSC_GDPS_AirTemp_IsbL-0010_LatLon0.15_PT078H.grib2 2026-04-30 16:13 698K
20260430T12Z_MSC_GDPS_AirTemp_IsbL-0020_LatLon0.15_PT078H.grib2 2026-04-30 16:13 790K
20260430T12Z_MSC_GDPS_AirTemp_IsbL-0030_LatLon0.15_PT078H.grib2 2026-04-30 16:13 758K
20260430T12Z_MSC_GDPS_AirTemp_IsbL-0050_LatLon0.15_PT078H.grib2 2026-04-30 16:13 815K
20260430T12Z_MSC_GDPS_AirTemp_IsbL-0100_LatLon0.15_PT078H.grib2 2026-04-30 16:13 970K
20260430T12Z_MSC_GDPS_AirTemp_IsbL-0150_LatLon0.15_PT078H.grib2 2026-04-30 16:13 1.0M
20260430T12Z_MSC_GDPS_AirTemp_IsbL-0175_LatLon0.15_PT078H.grib2 2026-04-30 16:13 961K
20260430T12Z_MSC_GDPS_AirTemp_IsbL-0200_LatLon0.15_PT078H.grib2 2026-04-30 16:13 1.0M
20260430T12Z_MSC_GDPS_AirTemp_IsbL-0225_LatLon0.15_PT078H.grib2 2026-04-30 16:13 1.0M
20260430T12Z_MSC_GDPS_AirTemp_IsbL-0250_LatLon0.15_PT078H.grib2 2026-04-30 16:13 1.0M
20260430T12Z_MSC_GDPS_AirTemp_IsbL-0275_LatLon0.15_PT078H.grib2 2026-04-30 16:13 1.0M
20260430T12Z_MSC_GDPS_AirTemp_IsbL-0300_LatLon0.15_PT078H.grib2 2026-04-30 16:13 1.0M
20260430T12Z_MSC_GDPS_AirTemp_IsbL-0350_LatLon0.15_PT078H.grib2 2026-04-30 16:13 932K
20260430T12Z_MSC_GDPS_AirTemp_IsbL-0400_LatLon0.15_PT078H.grib2 2026-04-30 16:13 943K
20260430T12Z_MSC_GDPS_AirTemp_IsbL-0450_LatLon0.15_PT078H.grib2 2026-04-30 16:13 965K
20260430T12Z_MSC_GDPS_AirTemp_IsbL-0500_LatLon0.15_PT078H.grib2 2026-04-30 16:13 1.0M
20260430T12Z_MSC_GDPS_AirTemp_IsbL-0550_LatLon0.15_PT078H.grib2 2026-04-30 16:13 807K
20260430T12Z_MSC_GDPS_AirTemp_IsbL-0600_LatLon0.15_PT078H.grib2 2026-04-30 16:13 897K
20260430T12Z_MSC_GDPS_AirTemp_IsbL-0650_LatLon0.15_PT078H.grib2 2026-04-30 16:13 923K
20260430T12Z_MSC_GDPS_AirTemp_IsbL-0700_LatLon0.15_PT078H.grib2 2026-04-30 16:13 960K
20260430T12Z_MSC_GDPS_AirTemp_IsbL-0750_LatLon0.15_PT078H.grib2 2026-04-30 16:13 1.0M
20260430T12Z_MSC_GDPS_AirTemp_IsbL-0800_LatLon0.15_PT078H.grib2 2026-04-30 16:13 1.1M
20260430T12Z_MSC_GDPS_AirTemp_IsbL-0850_LatLon0.15_PT078H.grib2 2026-04-30 16:13 1.1M
20260430T12Z_MSC_GDPS_AirTemp_IsbL-0875_LatLon0.15_PT078H.grib2 2026-04-30 16:13 1.2M
20260430T12Z_MSC_GDPS_AirTemp_IsbL-0900_LatLon0.15_PT078H.grib2 2026-04-30 16:13 1.1M
20260430T12Z_MSC_GDPS_AirTemp_IsbL-0925_LatLon0.15_PT078H.grib2 2026-04-30 16:13 1.1M
20260430T12Z_MSC_GDPS_AirTemp_IsbL-0950_LatLon0.15_PT078H.grib2 2026-04-30 16:13 1.1M
20260430T12Z_MSC_GDPS_AirTemp_IsbL-0970_LatLon0.15_PT078H.grib2 2026-04-30 16:13 1.1M
20260430T12Z_MSC_GDPS_AirTemp_IsbL-0985_LatLon0.15_PT078H.grib2 2026-04-30 16:13 1.1M
20260430T12Z_MSC_GDPS_AirTemp_IsbL-1000_LatLon0.15_PT078H.grib2 2026-04-30 16:13 1.1M
20260430T12Z_MSC_GDPS_AirTemp_IsbL-1015_LatLon0.15_PT078H.grib2 2026-04-30 16:13 862K
20260430T12Z_MSC_GDPS_Albedo_Sfc_LatLon0.15_PT078H.grib2 2026-04-30 16:13 244K
20260430T12Z_MSC_GDPS_CAPE_Sfc_LatLon0.15_PT078H.grib2 2026-04-30 16:13 3.9M
20260430T12Z_MSC_GDPS_CIN_Sfc_LatLon0.15_PT078H.grib2 2026-04-30 16:13 2.8M
20260430T12Z_MSC_GDPS_CloudWater_EAtm_LatLon0.15_PT078H.grib2 2026-04-30 16:13 536K
20260430T12Z_MSC_GDPS_ConvectivePrecip-Accum_Sfc_LatLon0.15_PT078H.grib2 2026-04-30 16:13 3.1M
20260430T12Z_MSC_GDPS_DewPointDepression_AGL-2m_LatLon0.15_PT078H.grib2 2026-04-30 16:13 766K
20260430T12Z_MSC_GDPS_DewPointDepression_IsbL-0010_LatLon0.15_PT078H.grib2 2026-04-30 16:13 64K
20260430T12Z_MSC_GDPS_DewPointDepression_IsbL-0020_LatLon0.15_PT078H.grib2 2026-04-30 16:13 67K
20260430T12Z_MSC_GDPS_DewPointDepression_IsbL-0030_LatLon0.15_PT078H.grib2 2026-04-30 16:13 85K
20260430T12Z_MSC_GDPS_DewPointDepression_IsbL-0050_LatLon0.15_PT078H.grib2 2026-04-30 16:13 374K
20260430T12Z_MSC_GDPS_DewPointDepression_IsbL-0100_LatLon0.15_PT078H.grib2 2026-04-30 16:13 406K
20260430T12Z_MSC_GDPS_DewPointDepression_IsbL-0150_LatLon0.15_PT078H.grib2 2026-04-30 16:13 465K
20260430T12Z_MSC_GDPS_DewPointDepression_IsbL-0175_LatLon0.15_PT078H.grib2 2026-04-30 16:13 583K
20260430T12Z_MSC_GDPS_DewPointDepression_IsbL-0200_LatLon0.15_PT078H.grib2 2026-04-30 16:13 690K
20260430T12Z_MSC_GDPS_DewPointDepression_IsbL-0225_LatLon0.15_PT078H.grib2 2026-04-30 16:13 785K
20260430T12Z_MSC_GDPS_DewPointDepression_IsbL-0250_LatLon0.15_PT078H.grib2 2026-04-30 16:13 866K
20260430T12Z_MSC_GDPS_DewPointDepression_IsbL-0275_LatLon0.15_PT078H.grib2 2026-04-30 16:13 881K
20260430T12Z_MSC_GDPS_DewPointDepression_IsbL-0300_LatLon0.15_PT078H.grib2 2026-04-30 16:13 921K
20260430T12Z_MSC_GDPS_DewPointDepression_IsbL-0350_LatLon0.15_PT078H.grib2 2026-04-30 16:13 957K
20260430T12Z_MSC_GDPS_DewPointDepression_IsbL-0400_LatLon0.15_PT078H.grib2 2026-04-30 16:13 1.0M
20260430T12Z_MSC_GDPS_DewPointDepression_IsbL-0450_LatLon0.15_PT078H.grib2 2026-04-30 16:13 1.0M
20260430T12Z_MSC_GDPS_DewPointDepression_IsbL-0500_LatLon0.15_PT078H.grib2 2026-04-30 16:13 1.0M
20260430T12Z_MSC_GDPS_DewPointDepression_IsbL-0550_LatLon0.15_PT078H.grib2 2026-04-30 16:13 1.0M
20260430T12Z_MSC_GDPS_DewPointDepression_IsbL-0600_LatLon0.15_PT078H.grib2 2026-04-30 16:13 1.0M
20260430T12Z_MSC_GDPS_DewPointDepression_IsbL-0650_LatLon0.15_PT078H.grib2 2026-04-30 16:13 1.1M
20260430T12Z_MSC_GDPS_DewPointDepression_IsbL-0700_LatLon0.15_PT078H.grib2 2026-04-30 16:13 1.1M
20260430T12Z_MSC_GDPS_DewPointDepression_IsbL-0750_LatLon0.15_PT078H.grib2 2026-04-30 16:13 1.1M
20260430T12Z_MSC_GDPS_DewPointDepression_IsbL-0800_LatLon0.15_PT078H.grib2 2026-04-30 16:13 1.2M
20260430T12Z_MSC_GDPS_DewPointDepression_IsbL-0850_LatLon0.15_PT078H.grib2 2026-04-30 16:13 1.2M
20260430T12Z_MSC_GDPS_DewPointDepression_IsbL-0875_LatLon0.15_PT078H.grib2 2026-04-30 16:13 1.1M
20260430T12Z_MSC_GDPS_DewPointDepression_IsbL-0900_LatLon0.15_PT078H.grib2 2026-04-30 16:13 1.1M
20260430T12Z_MSC_GDPS_DewPointDepression_IsbL-0925_LatLon0.15_PT078H.grib2 2026-04-30 16:13 1.0M
20260430T12Z_MSC_GDPS_DewPointDepression_IsbL-0950_LatLon0.15_PT078H.grib2 2026-04-30 16:13 1.0M
20260430T12Z_MSC_GDPS_DewPointDepression_IsbL-0970_LatLon0.15_PT078H.grib2 2026-04-30 16:13 1.0M
20260430T12Z_MSC_GDPS_DewPointDepression_IsbL-0985_LatLon0.15_PT078H.grib2 2026-04-30 16:13 1.0M
20260430T12Z_MSC_GDPS_DewPointDepression_IsbL-1000_LatLon0.15_PT078H.grib2 2026-04-30 16:13 1.0M
20260430T12Z_MSC_GDPS_DewPointDepression_IsbL-1015_LatLon0.15_PT078H.grib2 2026-04-30 16:13 920K
20260430T12Z_MSC_GDPS_DewPoint_AGL-2m_LatLon0.15_PT078H.grib2 2026-04-30 16:13 611K
20260430T12Z_MSC_GDPS_DownwardLongwaveRadiationFlux-Accum_Sfc_LatLon0.15_PT078H.grib2 2026-04-30 16:13 681K
20260430T12Z_MSC_GDPS_DownwardShortwaveRadiationFlux-Accum_NTAtm_LatLon0.15_PT078H.grib2 2026-04-30 16:13 242K
20260430T12Z_MSC_GDPS_DownwardShortwaveRadiationFlux-Accum_Sfc_LatLon0.15_PT078H.grib2 2026-04-30 16:13 889K
20260430T12Z_MSC_GDPS_FreezingRain-Accum12h_Sfc_LatLon0.15_PT078H.grib2 2026-04-30 16:13 104K
20260430T12Z_MSC_GDPS_FreezingRain-Accum1h_Sfc_LatLon0.15_PT078H.grib2 2026-04-30 16:13 33K
20260430T12Z_MSC_GDPS_FreezingRain-Accum24h_Sfc_LatLon0.15_PT078H.grib2 2026-04-30 16:13 147K
20260430T12Z_MSC_GDPS_FreezingRain-Accum3h_Sfc_LatLon0.15_PT078H.grib2 2026-04-30 16:13 46K
20260430T12Z_MSC_GDPS_FreezingRain-Accum6h_Sfc_LatLon0.15_PT078H.grib2 2026-04-30 16:13 82K
20260430T12Z_MSC_GDPS_FreezingRain-Accum_Sfc_LatLon0.15_PT078H.grib2 2026-04-30 16:13 326K
20260430T12Z_MSC_GDPS_GeopotentialHeight_IsbL-0001_LatLon0.15_PT078H.grib2 2026-04-30 16:13 418K
20260430T12Z_MSC_GDPS_GeopotentialHeight_IsbL-0005_LatLon0.15_PT078H.grib2 2026-04-30 16:13 495K
20260430T12Z_MSC_GDPS_GeopotentialHeight_IsbL-0010_LatLon0.15_PT078H.grib2 2026-04-30 16:13 488K
20260430T12Z_MSC_GDPS_GeopotentialHeight_IsbL-0020_LatLon0.15_PT078H.grib2 2026-04-30 16:13 419K
20260430T12Z_MSC_GDPS_GeopotentialHeight_IsbL-0030_LatLon0.15_PT078H.grib2 2026-04-30 16:13 575K
20260430T12Z_MSC_GDPS_GeopotentialHeight_IsbL-0050_LatLon0.15_PT078H.grib2 2026-04-30 16:13 570K
20260430T12Z_MSC_GDPS_GeopotentialHeight_IsbL-0100_LatLon0.15_PT078H.grib2 2026-04-30 16:13 610K
20260430T12Z_MSC_GDPS_GeopotentialHeight_IsbL-0150_LatLon0.15_PT078H.grib2 2026-04-30 16:13 626K
20260430T12Z_MSC_GDPS_GeopotentialHeight_IsbL-0175_LatLon0.15_PT078H.grib2 2026-04-30 16:13 629K
20260430T12Z_MSC_GDPS_GeopotentialHeight_IsbL-0200_LatLon0.15_PT078H.grib2 2026-04-30 16:13 633K
20260430T12Z_MSC_GDPS_GeopotentialHeight_IsbL-0225_LatLon0.15_PT078H.grib2 2026-04-30 16:13 634K
20260430T12Z_MSC_GDPS_GeopotentialHeight_IsbL-0250_LatLon0.15_PT078H.grib2 2026-04-30 16:13 639K
20260430T12Z_MSC_GDPS_GeopotentialHeight_IsbL-0275_LatLon0.15_PT078H.grib2 2026-04-30 16:13 639K
20260430T12Z_MSC_GDPS_GeopotentialHeight_IsbL-0300_LatLon0.15_PT078H.grib2 2026-04-30 16:13 631K
20260430T12Z_MSC_GDPS_GeopotentialHeight_IsbL-0350_LatLon0.15_PT078H.grib2 2026-04-30 16:13 627K
20260430T12Z_MSC_GDPS_GeopotentialHeight_IsbL-0400_LatLon0.15_PT078H.grib2 2026-04-30 16:13 617K
20260430T12Z_MSC_GDPS_GeopotentialHeight_IsbL-0450_LatLon0.15_PT078H.grib2 2026-04-30 16:13 608K
20260430T12Z_MSC_GDPS_GeopotentialHeight_IsbL-0500_LatLon0.15_PT078H.grib2 2026-04-30 16:13 596K
20260430T12Z_MSC_GDPS_GeopotentialHeight_IsbL-0550_LatLon0.15_PT078H.grib2 2026-04-30 16:13 527K
20260430T12Z_MSC_GDPS_GeopotentialHeight_IsbL-0600_LatLon0.15_PT078H.grib2 2026-04-30 16:13 523K
20260430T12Z_MSC_GDPS_GeopotentialHeight_IsbL-0650_LatLon0.15_PT078H.grib2 2026-04-30 16:13 690K
20260430T12Z_MSC_GDPS_GeopotentialHeight_IsbL-0700_LatLon0.15_PT078H.grib2 2026-04-30 16:13 690K
20260430T12Z_MSC_GDPS_GeopotentialHeight_IsbL-0750_LatLon0.15_PT078H.grib2 2026-04-30 16:13 695K
20260430T12Z_MSC_GDPS_GeopotentialHeight_IsbL-0800_LatLon0.15_PT078H.grib2 2026-04-30 16:13 705K
20260430T12Z_MSC_GDPS_GeopotentialHeight_IsbL-0850_LatLon0.15_PT078H.grib2 2026-04-30 16:13 710K
20260430T12Z_MSC_GDPS_GeopotentialHeight_IsbL-0875_LatLon0.15_PT078H.grib2 2026-04-30 16:13 718K
20260430T12Z_MSC_GDPS_GeopotentialHeight_IsbL-0900_LatLon0.15_PT078H.grib2 2026-04-30 16:13 724K
20260430T12Z_MSC_GDPS_GeopotentialHeight_IsbL-0925_LatLon0.15_PT078H.grib2 2026-04-30 16:13 730K
20260430T12Z_MSC_GDPS_GeopotentialHeight_IsbL-0950_LatLon0.15_PT078H.grib2 2026-04-30 16:13 740K
20260430T12Z_MSC_GDPS_GeopotentialHeight_IsbL-0970_LatLon0.15_PT078H.grib2 2026-04-30 16:13 750K
20260430T12Z_MSC_GDPS_GeopotentialHeight_IsbL-0985_LatLon0.15_PT078H.grib2 2026-04-30 16:13 766K
20260430T12Z_MSC_GDPS_GeopotentialHeight_IsbL-1000_LatLon0.15_PT078H.grib2 2026-04-30 16:13 788K
20260430T12Z_MSC_GDPS_GeopotentialHeight_IsbL-1015_LatLon0.15_PT078H.grib2 2026-04-30 16:13 811K
20260430T12Z_MSC_GDPS_Humidex_Sfc_LatLon0.15_PT078H.grib2 2026-04-30 16:13 5.3M
20260430T12Z_MSC_GDPS_IcePellets-Accum12h_Sfc_LatLon0.15_PT078H.grib2 2026-04-30 16:13 6.7K
20260430T12Z_MSC_GDPS_IcePellets-Accum1h_Sfc_LatLon0.15_PT078H.grib2 2026-04-30 16:13 1.2K
20260430T12Z_MSC_GDPS_IcePellets-Accum24h_Sfc_LatLon0.15_PT078H.grib2 2026-04-30 16:13 14K
20260430T12Z_MSC_GDPS_IcePellets-Accum3h_Sfc_LatLon0.15_PT078H.grib2 2026-04-30 16:13 1.7K
20260430T12Z_MSC_GDPS_IcePellets-Accum6h_Sfc_LatLon0.15_PT078H.grib2 2026-04-30 16:13 3.9K
20260430T12Z_MSC_GDPS_IcePellets-Accum_Sfc_LatLon0.15_PT078H.grib2 2026-04-30 16:13 67K
20260430T12Z_MSC_GDPS_KIndex_Sfc_LatLon0.15_PT078H.grib2 2026-04-30 16:13 6.5M
20260430T12Z_MSC_GDPS_LatentHeatNetFlux_Sfc_LatLon0.15_PT078H.grib2 2026-04-30 16:13 691K
20260430T12Z_MSC_GDPS_LiftedIndex-MU-VT_IsbL-0500_LatLon0.15_PT078H.grib2 2026-04-30 16:13 5.4M
20260430T12Z_MSC_GDPS_NetLongwaveRadiationFlux-Accum_Sfc_LatLon0.15_PT078H.grib2 2026-04-30 16:13 1.0M
20260430T12Z_MSC_GDPS_NetShortwaveRadiationFlux-Accum_Sfc_LatLon0.15_PT078H.grib2 2026-04-30 16:13 875K
20260430T12Z_MSC_GDPS_O3MixingRatio_Sfc_LatLon0.15_PT078H.grib2 2026-04-30 16:44 1.9M
20260430T12Z_MSC_GDPS_O3_EAtm_LatLon0.15_PT078H.grib2 2026-04-30 16:44 2.4M
20260430T12Z_MSC_GDPS_PlanetaryBoundaryLayerHeight_Sfc_LatLon0.15_PT078H.grib2 2026-04-30 16:13 2.4M
20260430T12Z_MSC_GDPS_Precip-Accum12h_Sfc_LatLon0.15_PT078H.grib2 2026-04-30 16:13 4.0M
20260430T12Z_MSC_GDPS_Precip-Accum1h_Sfc_LatLon0.15_PT078H.grib2 2026-04-30 16:13 3.2M
20260430T12Z_MSC_GDPS_Precip-Accum24h_Sfc_LatLon0.15_PT078H.grib2 2026-04-30 16:13 4.5M
20260430T12Z_MSC_GDPS_Precip-Accum3h_Sfc_LatLon0.15_PT078H.grib2 2026-04-30 16:13 3.5M
20260430T12Z_MSC_GDPS_Precip-Accum6h_Sfc_LatLon0.15_PT078H.grib2 2026-04-30 16:13 3.8M
20260430T12Z_MSC_GDPS_Precip-Accum_Sfc_LatLon0.15_PT078H.grib2 2026-04-30 16:13 5.2M
20260430T12Z_MSC_GDPS_PrecipRate_Sfc_LatLon0.15_PT078H.grib2 2026-04-30 16:13 3.0M
20260430T12Z_MSC_GDPS_PrecipType-Instant_Sfc_LatLon0.15_PT078H.grib2 2026-04-30 16:13 1.6M
20260430T12Z_MSC_GDPS_Pressure_MSL_LatLon0.15_PT078H.grib2 2026-04-30 16:13 840K
20260430T12Z_MSC_GDPS_Pressure_PVU-1.5_LatLon0.15_PT078H.grib2 2026-04-30 16:13 5.8M
20260430T12Z_MSC_GDPS_Pressure_PVU-1_LatLon0.15_PT078H.grib2 2026-04-30 16:13 6.0M
20260430T12Z_MSC_GDPS_Pressure_PVU-2_LatLon0.15_PT078H.grib2 2026-04-30 16:13 5.6M
20260430T12Z_MSC_GDPS_Pressure_Sfc_LatLon0.15_PT078H.grib2 2026-04-30 16:13 1.1M
20260430T12Z_MSC_GDPS_RadiativeTemp_Sfc_LatLon0.15_PT078H.grib2 2026-04-30 16:13 664K
20260430T12Z_MSC_GDPS_Rain-Accum12h_Sfc_LatLon0.15_PT078H.grib2 2026-04-30 16:13 2.7M
20260430T12Z_MSC_GDPS_Rain-Accum1h_Sfc_LatLon0.15_PT078H.grib2 2026-04-30 16:13 1.6M
20260430T12Z_MSC_GDPS_Rain-Accum24h_Sfc_LatLon0.15_PT078H.grib2 2026-04-30 16:13 3.2M
20260430T12Z_MSC_GDPS_Rain-Accum3h_Sfc_LatLon0.15_PT078H.grib2 2026-04-30 16:13 1.8M
20260430T12Z_MSC_GDPS_Rain-Accum6h_Sfc_LatLon0.15_PT078H.grib2 2026-04-30 16:13 2.4M
20260430T12Z_MSC_GDPS_Rain-Accum_Sfc_LatLon0.15_PT078H.grib2 2026-04-30 16:13 4.0M
20260430T12Z_MSC_GDPS_RelativeHumidity_AGL-2m_LatLon0.15_PT078H.grib2 2026-04-30 16:13 1.0M
20260430T12Z_MSC_GDPS_RelativeHumidity_IsbL-0010_LatLon0.15_PT078H.grib2 2026-04-30 16:13 198K
20260430T12Z_MSC_GDPS_RelativeHumidity_IsbL-0020_LatLon0.15_PT078H.grib2 2026-04-30 16:13 166K
20260430T12Z_MSC_GDPS_RelativeHumidity_IsbL-0030_LatLon0.15_PT078H.grib2 2026-04-30 16:13 269K
20260430T12Z_MSC_GDPS_RelativeHumidity_IsbL-0050_LatLon0.15_PT078H.grib2 2026-04-30 16:13 519K
20260430T12Z_MSC_GDPS_RelativeHumidity_IsbL-0100_LatLon0.15_PT078H.grib2 2026-04-30 16:13 516K
20260430T12Z_MSC_GDPS_RelativeHumidity_IsbL-0150_LatLon0.15_PT078H.grib2 2026-04-30 16:13 657K
20260430T12Z_MSC_GDPS_RelativeHumidity_IsbL-0175_LatLon0.15_PT078H.grib2 2026-04-30 16:13 785K
20260430T12Z_MSC_GDPS_RelativeHumidity_IsbL-0200_LatLon0.15_PT078H.grib2 2026-04-30 16:13 711K
20260430T12Z_MSC_GDPS_RelativeHumidity_IsbL-0225_LatLon0.15_PT078H.grib2 2026-04-30 16:13 796K
20260430T12Z_MSC_GDPS_RelativeHumidity_IsbL-0250_LatLon0.15_PT078H.grib2 2026-04-30 16:13 872K
20260430T12Z_MSC_GDPS_RelativeHumidity_IsbL-0275_LatLon0.15_PT078H.grib2 2026-04-30 16:13 891K
20260430T12Z_MSC_GDPS_RelativeHumidity_IsbL-0300_LatLon0.15_PT078H.grib2 2026-04-30 16:13 931K
20260430T12Z_MSC_GDPS_RelativeHumidity_IsbL-0350_LatLon0.15_PT078H.grib2 2026-04-30 16:13 954K
20260430T12Z_MSC_GDPS_RelativeHumidity_IsbL-0400_LatLon0.15_PT078H.grib2 2026-04-30 16:13 1.0M
20260430T12Z_MSC_GDPS_RelativeHumidity_IsbL-0450_LatLon0.15_PT078H.grib2 2026-04-30 16:13 1.0M
20260430T12Z_MSC_GDPS_RelativeHumidity_IsbL-0500_LatLon0.15_PT078H.grib2 2026-04-30 16:13 1.0M
20260430T12Z_MSC_GDPS_RelativeHumidity_IsbL-0550_LatLon0.15_PT078H.grib2 2026-04-30 16:13 1.0M
20260430T12Z_MSC_GDPS_RelativeHumidity_IsbL-0600_LatLon0.15_PT078H.grib2 2026-04-30 16:13 1.1M
20260430T12Z_MSC_GDPS_RelativeHumidity_IsbL-0650_LatLon0.15_PT078H.grib2 2026-04-30 16:13 1.1M
20260430T12Z_MSC_GDPS_RelativeHumidity_IsbL-0700_LatLon0.15_PT078H.grib2 2026-04-30 16:13 1.1M
20260430T12Z_MSC_GDPS_RelativeHumidity_IsbL-0750_LatLon0.15_PT078H.grib2 2026-04-30 16:13 1.2M
20260430T12Z_MSC_GDPS_RelativeHumidity_IsbL-0800_LatLon0.15_PT078H.grib2 2026-04-30 16:13 1.3M
20260430T12Z_MSC_GDPS_RelativeHumidity_IsbL-0850_LatLon0.15_PT078H.grib2 2026-04-30 16:13 1.3M
20260430T12Z_MSC_GDPS_RelativeHumidity_IsbL-0875_LatLon0.15_PT078H.grib2 2026-04-30 16:13 1.3M
20260430T12Z_MSC_GDPS_RelativeHumidity_IsbL-0900_LatLon0.15_PT078H.grib2 2026-04-30 16:13 1.2M
20260430T12Z_MSC_GDPS_RelativeHumidity_IsbL-0925_LatLon0.15_PT078H.grib2 2026-04-30 16:13 1.2M
20260430T12Z_MSC_GDPS_RelativeHumidity_IsbL-0950_LatLon0.15_PT078H.grib2 2026-04-30 16:13 1.2M
20260430T12Z_MSC_GDPS_RelativeHumidity_IsbL-0970_LatLon0.15_PT078H.grib2 2026-04-30 16:13 1.2M
20260430T12Z_MSC_GDPS_RelativeHumidity_IsbL-0985_LatLon0.15_PT078H.grib2 2026-04-30 16:13 1.2M
20260430T12Z_MSC_GDPS_RelativeHumidity_IsbL-1000_LatLon0.15_PT078H.grib2 2026-04-30 16:13 1.1M
20260430T12Z_MSC_GDPS_RelativeHumidity_IsbL-1015_LatLon0.15_PT078H.grib2 2026-04-30 16:13 1.0M
20260430T12Z_MSC_GDPS_RelativeVorticity_IsbL-0200_LatLon0.15_PT078H.grib2 2026-04-30 16:13 1.5M
20260430T12Z_MSC_GDPS_RelativeVorticity_IsbL-0250_LatLon0.15_PT078H.grib2 2026-04-30 16:13 1.6M
20260430T12Z_MSC_GDPS_RelativeVorticity_IsbL-0500_LatLon0.15_PT078H.grib2 2026-04-30 16:13 1.4M
20260430T12Z_MSC_GDPS_RelativeVorticity_IsbL-0700_LatLon0.15_PT078H.grib2 2026-04-30 16:13 1.6M
20260430T12Z_MSC_GDPS_RelativeVorticity_IsbL-0850_LatLon0.15_PT078H.grib2 2026-04-30 16:13 1.6M
20260430T12Z_MSC_GDPS_Runoff-Accum_Sfc_LatLon0.15_PT078H.grib2 2026-04-30 16:13 158K
20260430T12Z_MSC_GDPS_SensibleHeatNetFlux_Sfc_LatLon0.15_PT078H.grib2 2026-04-30 16:13 627K
20260430T12Z_MSC_GDPS_ShowalterIndex_IsbL-0500_LatLon0.15_PT078H.grib2 2026-04-30 16:13 6.2M
20260430T12Z_MSC_GDPS_Snow-Accum12h_Sfc_LatLon0.15_PT078H.grib2 2026-04-30 16:13 1.4M
20260430T12Z_MSC_GDPS_Snow-Accum1h_Sfc_LatLon0.15_PT078H.grib2 2026-04-30 16:13 1.1M
20260430T12Z_MSC_GDPS_Snow-Accum24h_Sfc_LatLon0.15_PT078H.grib2 2026-04-30 16:13 1.6M
20260430T12Z_MSC_GDPS_Snow-Accum3h_Sfc_LatLon0.15_PT078H.grib2 2026-04-30 16:13 1.1M
20260430T12Z_MSC_GDPS_Snow-Accum6h_Sfc_LatLon0.15_PT078H.grib2 2026-04-30 16:13 1.4M
20260430T12Z_MSC_GDPS_Snow-Accum_Sfc_LatLon0.15_PT078H.grib2 2026-04-30 16:13 1.9M
20260430T12Z_MSC_GDPS_SnowDensity_Sfc_LatLon0.15_PT078H.grib2 2026-04-30 16:13 263K
20260430T12Z_MSC_GDPS_SnowDepth_Sfc_LatLon0.15_PT078H.grib2 2026-04-30 16:13 1.7M
20260430T12Z_MSC_GDPS_SoilTemp_DBS-0to10cm_LatLon0.15_PT078H.grib2 2026-04-30 16:13 511K
20260430T12Z_MSC_GDPS_SoilTemp_Sfc_LatLon0.15_PT078H.grib2 2026-04-30 16:13 581K
20260430T12Z_MSC_GDPS_SoilVolumetricIceContent_Sfc_LatLon0.15_PT078H.grib2 2026-04-30 16:13 198K
20260430T12Z_MSC_GDPS_SoilVolumetricWaterContent_DBS-0to10cm_LatLon0.15_PT078H.grib2 2026-04-30 16:13 588K
20260430T12Z_MSC_GDPS_SoilVolumetricWaterContent_DBS-0to1cm_LatLon0.15_PT078H.grib2 2026-04-30 16:13 651K
20260430T12Z_MSC_GDPS_SpecificHumidity_AGL-120m_LatLon0.15_PT078H.grib2 2026-04-30 16:13 1.1M
20260430T12Z_MSC_GDPS_SpecificHumidity_AGL-2m_LatLon0.15_PT078H.grib2 2026-04-30 16:13 1.2M
20260430T12Z_MSC_GDPS_SpecificHumidity_AGL-40m_LatLon0.15_PT078H.grib2 2026-04-30 16:13 1.1M
20260430T12Z_MSC_GDPS_SpecificHumidity_AGL-80m_LatLon0.15_PT078H.grib2 2026-04-30 16:13 1.1M
20260430T12Z_MSC_GDPS_SpecificHumidity_IsbL-0001_LatLon0.15_PT078H.grib2 2026-04-30 16:13 1.3M
20260430T12Z_MSC_GDPS_SpecificHumidity_IsbL-0005_LatLon0.15_PT078H.grib2 2026-04-30 16:13 1.2M
20260430T12Z_MSC_GDPS_SpecificHumidity_IsbL-0010_LatLon0.15_PT078H.grib2 2026-04-30 16:13 1.3M
20260430T12Z_MSC_GDPS_SpecificHumidity_IsbL-0020_LatLon0.15_PT078H.grib2 2026-04-30 16:13 1.3M
20260430T12Z_MSC_GDPS_SpecificHumidity_IsbL-0030_LatLon0.15_PT078H.grib2 2026-04-30 16:13 1.3M
20260430T12Z_MSC_GDPS_SpecificHumidity_IsbL-0050_LatLon0.15_PT078H.grib2 2026-04-30 16:13 1.6M
20260430T12Z_MSC_GDPS_SpecificHumidity_IsbL-0100_LatLon0.15_PT078H.grib2 2026-04-30 16:13 1.3M
20260430T12Z_MSC_GDPS_SpecificHumidity_IsbL-0150_LatLon0.15_PT078H.grib2 2026-04-30 16:13 1.3M
20260430T12Z_MSC_GDPS_SpecificHumidity_IsbL-0175_LatLon0.15_PT078H.grib2 2026-04-30 16:13 1.3M
20260430T12Z_MSC_GDPS_SpecificHumidity_IsbL-0200_LatLon0.15_PT078H.grib2 2026-04-30 16:13 1.3M
20260430T12Z_MSC_GDPS_SpecificHumidity_IsbL-0225_LatLon0.15_PT078H.grib2 2026-04-30 16:13 1.3M
20260430T12Z_MSC_GDPS_SpecificHumidity_IsbL-0250_LatLon0.15_PT078H.grib2 2026-04-30 16:13 1.4M
20260430T12Z_MSC_GDPS_SpecificHumidity_IsbL-0275_LatLon0.15_PT078H.grib2 2026-04-30 16:13 1.3M
20260430T12Z_MSC_GDPS_SpecificHumidity_IsbL-0300_LatLon0.15_PT078H.grib2 2026-04-30 16:13 1.2M
20260430T12Z_MSC_GDPS_SpecificHumidity_IsbL-0350_LatLon0.15_PT078H.grib2 2026-04-30 16:13 1.2M
20260430T12Z_MSC_GDPS_SpecificHumidity_IsbL-0400_LatLon0.15_PT078H.grib2 2026-04-30 16:13 1.5M
20260430T12Z_MSC_GDPS_SpecificHumidity_IsbL-0450_LatLon0.15_PT078H.grib2 2026-04-30 16:13 1.3M
20260430T12Z_MSC_GDPS_SpecificHumidity_IsbL-0500_LatLon0.15_PT078H.grib2 2026-04-30 16:13 1.4M
20260430T12Z_MSC_GDPS_SpecificHumidity_IsbL-0550_LatLon0.15_PT078H.grib2 2026-04-30 16:13 1.6M
20260430T12Z_MSC_GDPS_SpecificHumidity_IsbL-0600_LatLon0.15_PT078H.grib2 2026-04-30 16:13 1.7M
20260430T12Z_MSC_GDPS_SpecificHumidity_IsbL-0650_LatLon0.15_PT078H.grib2 2026-04-30 16:13 1.5M
20260430T12Z_MSC_GDPS_SpecificHumidity_IsbL-0700_LatLon0.15_PT078H.grib2 2026-04-30 16:13 1.6M
20260430T12Z_MSC_GDPS_SpecificHumidity_IsbL-0750_LatLon0.15_PT078H.grib2 2026-04-30 16:13 1.7M
20260430T12Z_MSC_GDPS_SpecificHumidity_IsbL-0800_LatLon0.15_PT078H.grib2 2026-04-30 16:13 1.9M
20260430T12Z_MSC_GDPS_SpecificHumidity_IsbL-0850_LatLon0.15_PT078H.grib2 2026-04-30 16:13 1.9M
20260430T12Z_MSC_GDPS_SpecificHumidity_IsbL-0875_LatLon0.15_PT078H.grib2 2026-04-30 16:13 1.9M
20260430T12Z_MSC_GDPS_SpecificHumidity_IsbL-0900_LatLon0.15_PT078H.grib2 2026-04-30 16:13 1.9M
20260430T12Z_MSC_GDPS_SpecificHumidity_IsbL-0925_LatLon0.15_PT078H.grib2 2026-04-30 16:13 1.6M
20260430T12Z_MSC_GDPS_SpecificHumidity_IsbL-0950_LatLon0.15_PT078H.grib2 2026-04-30 16:13 1.6M
20260430T12Z_MSC_GDPS_SpecificHumidity_IsbL-0970_LatLon0.15_PT078H.grib2 2026-04-30 16:13 1.5M
20260430T12Z_MSC_GDPS_SpecificHumidity_IsbL-0985_LatLon0.15_PT078H.grib2 2026-04-30 16:13 1.5M
20260430T12Z_MSC_GDPS_SpecificHumidity_IsbL-1000_LatLon0.15_PT078H.grib2 2026-04-30 16:13 1.5M
20260430T12Z_MSC_GDPS_SpecificHumidity_IsbL-1015_LatLon0.15_PT078H.grib2 2026-04-30 16:13 1.5M
20260430T12Z_MSC_GDPS_SpecificHumidity_Sfc_LatLon0.15_PT078H.grib2 2026-04-30 16:13 669K
20260430T12Z_MSC_GDPS_Thickness_IsbL-0850to0700_LatLon0.15_PT078H.grib2 2026-04-30 16:13 470K
20260430T12Z_MSC_GDPS_Thickness_IsbL-1000to0500_LatLon0.15_PT078H.grib2 2026-04-30 16:13 373K
20260430T12Z_MSC_GDPS_Thickness_IsbL-1000to0850_LatLon0.15_PT078H.grib2 2026-04-30 16:13 491K
20260430T12Z_MSC_GDPS_TotalCloudCover_Sfc_LatLon0.15_PT078H.grib2 2026-04-30 16:13 822K
20260430T12Z_MSC_GDPS_TotalTotalsIndex_Sfc_LatLon0.15_PT078H.grib2 2026-04-30 16:13 6.2M
20260430T12Z_MSC_GDPS_UVIndex-ClearSky-Max24h_Sfc_LatLon0.15_PT078H.grib2 2026-04-30 16:44 2.2M
20260430T12Z_MSC_GDPS_UVIndex-ClearSky_Sfc_LatLon0.15_PT078H.grib2 2026-04-30 16:44 1.0M
20260430T12Z_MSC_GDPS_UVIndex-Max24h_Sfc_LatLon0.15_PT078H.grib2 2026-04-30 16:44 3.2M
20260430T12Z_MSC_GDPS_UVIndex_Sfc_LatLon0.15_PT078H.grib2 2026-04-30 16:44 1.5M
20260430T12Z_MSC_GDPS_UpwardLongwaveRadiationFlux_NTAtm_LatLon0.15_PT078H.grib2 2026-04-30 16:13 843K
20260430T12Z_MSC_GDPS_VerticalVelocity_IsbL-0200_LatLon0.15_PT078H.grib2 2026-04-30 16:13 1.2M
20260430T12Z_MSC_GDPS_VerticalVelocity_IsbL-0250_LatLon0.15_PT078H.grib2 2026-04-30 16:13 1.0M
20260430T12Z_MSC_GDPS_VerticalVelocity_IsbL-0500_LatLon0.15_PT078H.grib2 2026-04-30 16:13 1.0M
20260430T12Z_MSC_GDPS_VerticalVelocity_IsbL-0600_LatLon0.15_PT078H.grib2 2026-04-30 16:13 1.4M
20260430T12Z_MSC_GDPS_VerticalVelocity_IsbL-0700_LatLon0.15_PT078H.grib2 2026-04-30 16:13 1.4M
20260430T12Z_MSC_GDPS_VerticalVelocity_IsbL-0850_LatLon0.15_PT078H.grib2 2026-04-30 16:13 1.6M
20260430T12Z_MSC_GDPS_WindChill_Sfc_LatLon0.15_PT078H.grib2 2026-04-30 16:13 5.3M
20260430T12Z_MSC_GDPS_WindDir_AGL-10m_LatLon0.15_PT078H.grib2 2026-04-30 16:13 1.3M
20260430T12Z_MSC_GDPS_WindDir_AGL-120m_LatLon0.15_PT078H.grib2 2026-04-30 16:13 1.4M
20260430T12Z_MSC_GDPS_WindDir_AGL-40m_LatLon0.15_PT078H.grib2 2026-04-30 16:13 1.4M
20260430T12Z_MSC_GDPS_WindDir_AGL-80m_LatLon0.15_PT078H.grib2 2026-04-30 16:13 1.4M
20260430T12Z_MSC_GDPS_WindDir_IsbL-0001_LatLon0.15_PT078H.grib2 2026-04-30 16:13 693K
20260430T12Z_MSC_GDPS_WindDir_IsbL-0005_LatLon0.15_PT078H.grib2 2026-04-30 16:13 807K
20260430T12Z_MSC_GDPS_WindDir_IsbL-0010_LatLon0.15_PT078H.grib2 2026-04-30 16:13 844K
20260430T12Z_MSC_GDPS_WindDir_IsbL-0020_LatLon0.15_PT078H.grib2 2026-04-30 16:13 952K
20260430T12Z_MSC_GDPS_WindDir_IsbL-0030_LatLon0.15_PT078H.grib2 2026-04-30 16:13 943K
20260430T12Z_MSC_GDPS_WindDir_IsbL-0050_LatLon0.15_PT078H.grib2 2026-04-30 16:13 961K
20260430T12Z_MSC_GDPS_WindDir_IsbL-0100_LatLon0.15_PT078H.grib2 2026-04-30 16:13 1.0M
20260430T12Z_MSC_GDPS_WindDir_IsbL-0150_LatLon0.15_PT078H.grib2 2026-04-30 16:13 1.0M
20260430T12Z_MSC_GDPS_WindDir_IsbL-0175_LatLon0.15_PT078H.grib2 2026-04-30 16:13 1.1M
20260430T12Z_MSC_GDPS_WindDir_IsbL-0200_LatLon0.15_PT078H.grib2 2026-04-30 16:13 1.1M
20260430T12Z_MSC_GDPS_WindDir_IsbL-0225_LatLon0.15_PT078H.grib2 2026-04-30 16:13 1.1M
20260430T12Z_MSC_GDPS_WindDir_IsbL-0250_LatLon0.15_PT078H.grib2 2026-04-30 16:13 1.1M
20260430T12Z_MSC_GDPS_WindDir_IsbL-0275_LatLon0.15_PT078H.grib2 2026-04-30 16:13 1.2M
20260430T12Z_MSC_GDPS_WindDir_IsbL-0300_LatLon0.15_PT078H.grib2 2026-04-30 16:13 1.2M
20260430T12Z_MSC_GDPS_WindDir_IsbL-0350_LatLon0.15_PT078H.grib2 2026-04-30 16:13 1.2M
20260430T12Z_MSC_GDPS_WindDir_IsbL-0400_LatLon0.15_PT078H.grib2 2026-04-30 16:13 1.3M
20260430T12Z_MSC_GDPS_WindDir_IsbL-0450_LatLon0.15_PT078H.grib2 2026-04-30 16:13 1.3M
20260430T12Z_MSC_GDPS_WindDir_IsbL-0500_LatLon0.15_PT078H.grib2 2026-04-30 16:13 1.3M
20260430T12Z_MSC_GDPS_WindDir_IsbL-0550_LatLon0.15_PT078H.grib2 2026-04-30 16:13 1.4M
20260430T12Z_MSC_GDPS_WindDir_IsbL-0600_LatLon0.15_PT078H.grib2 2026-04-30 16:13 1.4M
20260430T12Z_MSC_GDPS_WindDir_IsbL-0650_LatLon0.15_PT078H.grib2 2026-04-30 16:13 1.5M
20260430T12Z_MSC_GDPS_WindDir_IsbL-0700_LatLon0.15_PT078H.grib2 2026-04-30 16:13 1.6M
20260430T12Z_MSC_GDPS_WindDir_IsbL-0750_LatLon0.15_PT078H.grib2 2026-04-30 16:13 1.7M
20260430T12Z_MSC_GDPS_WindDir_IsbL-0800_LatLon0.15_PT078H.grib2 2026-04-30 16:13 1.8M
20260430T12Z_MSC_GDPS_WindDir_IsbL-0850_LatLon0.15_PT078H.grib2 2026-04-30 16:13 1.9M
20260430T12Z_MSC_GDPS_WindDir_IsbL-0875_LatLon0.15_PT078H.grib2 2026-04-30 16:13 1.9M
20260430T12Z_MSC_GDPS_WindDir_IsbL-0900_LatLon0.15_PT078H.grib2 2026-04-30 16:13 2.0M
20260430T12Z_MSC_GDPS_WindDir_IsbL-0925_LatLon0.15_PT078H.grib2 2026-04-30 16:13 2.0M
20260430T12Z_MSC_GDPS_WindDir_IsbL-0950_LatLon0.15_PT078H.grib2 2026-04-30 16:13 2.0M
20260430T12Z_MSC_GDPS_WindDir_IsbL-0970_LatLon0.15_PT078H.grib2 2026-04-30 16:13 2.0M
20260430T12Z_MSC_GDPS_WindDir_IsbL-0985_LatLon0.15_PT078H.grib2 2026-04-30 16:13 2.0M
20260430T12Z_MSC_GDPS_WindDir_IsbL-1000_LatLon0.15_PT078H.grib2 2026-04-30 16:13 2.1M
20260430T12Z_MSC_GDPS_WindDir_IsbL-1015_LatLon0.15_PT078H.grib2 2026-04-30 16:13 2.0M
20260430T12Z_MSC_GDPS_WindGust-Max_AGL-10m_LatLon0.15_PT078H.grib2 2026-04-30 16:13 2.2M
20260430T12Z_MSC_GDPS_WindGust-Min_AGL-10m_LatLon0.15_PT078H.grib2 2026-04-30 16:13 2.2M
20260430T12Z_MSC_GDPS_WindGust_AGL-10m_LatLon0.15_PT078H.grib2 2026-04-30 16:13 2.2M
20260430T12Z_MSC_GDPS_WindSpeed_AGL-10m_LatLon0.15_PT078H.grib2 2026-04-30 16:13 1.1M
20260430T12Z_MSC_GDPS_WindSpeed_AGL-120m_LatLon0.15_PT078H.grib2 2026-04-30 16:13 1.2M
20260430T12Z_MSC_GDPS_WindSpeed_AGL-40m_LatLon0.15_PT078H.grib2 2026-04-30 16:13 1.2M
20260430T12Z_MSC_GDPS_WindSpeed_AGL-80m_LatLon0.15_PT078H.grib2 2026-04-30 16:13 1.2M
20260430T12Z_MSC_GDPS_WindSpeed_IsbL-0001_LatLon0.15_PT078H.grib2 2026-04-30 16:13 641K
20260430T12Z_MSC_GDPS_WindSpeed_IsbL-0005_LatLon0.15_PT078H.grib2 2026-04-30 16:13 692K
20260430T12Z_MSC_GDPS_WindSpeed_IsbL-0010_LatLon0.15_PT078H.grib2 2026-04-30 16:13 626K
20260430T12Z_MSC_GDPS_WindSpeed_IsbL-0020_LatLon0.15_PT078H.grib2 2026-04-30 16:13 668K
20260430T12Z_MSC_GDPS_WindSpeed_IsbL-0030_LatLon0.15_PT078H.grib2 2026-04-30 16:13 868K
20260430T12Z_MSC_GDPS_WindSpeed_IsbL-0050_LatLon0.15_PT078H.grib2 2026-04-30 16:13 910K
20260430T12Z_MSC_GDPS_WindSpeed_IsbL-0100_LatLon0.15_PT078H.grib2 2026-04-30 16:13 1.1M
20260430T12Z_MSC_GDPS_WindSpeed_IsbL-0150_LatLon0.15_PT078H.grib2 2026-04-30 16:13 949K
20260430T12Z_MSC_GDPS_WindSpeed_IsbL-0175_LatLon0.15_PT078H.grib2 2026-04-30 16:13 1.0M
20260430T12Z_MSC_GDPS_WindSpeed_IsbL-0200_LatLon0.15_PT078H.grib2 2026-04-30 16:13 1.1M
20260430T12Z_MSC_GDPS_WindSpeed_IsbL-0225_LatLon0.15_PT078H.grib2 2026-04-30 16:13 1.1M
20260430T12Z_MSC_GDPS_WindSpeed_IsbL-0250_LatLon0.15_PT078H.grib2 2026-04-30 16:13 1.1M
20260430T12Z_MSC_GDPS_WindSpeed_IsbL-0275_LatLon0.15_PT078H.grib2 2026-04-30 16:13 1.1M
20260430T12Z_MSC_GDPS_WindSpeed_IsbL-0300_LatLon0.15_PT078H.grib2 2026-04-30 16:13 1.1M
20260430T12Z_MSC_GDPS_WindSpeed_IsbL-0350_LatLon0.15_PT078H.grib2 2026-04-30 16:13 1.1M
20260430T12Z_MSC_GDPS_WindSpeed_IsbL-0400_LatLon0.15_PT078H.grib2 2026-04-30 16:13 1.1M
20260430T12Z_MSC_GDPS_WindSpeed_IsbL-0450_LatLon0.15_PT078H.grib2 2026-04-30 16:13 1.1M
20260430T12Z_MSC_GDPS_WindSpeed_IsbL-0500_LatLon0.15_PT078H.grib2 2026-04-30 16:13 1.1M
20260430T12Z_MSC_GDPS_WindSpeed_IsbL-0550_LatLon0.15_PT078H.grib2 2026-04-30 16:13 1.1M
20260430T12Z_MSC_GDPS_WindSpeed_IsbL-0600_LatLon0.15_PT078H.grib2 2026-04-30 16:13 1.4M
20260430T12Z_MSC_GDPS_WindSpeed_IsbL-0650_LatLon0.15_PT078H.grib2 2026-04-30 16:13 1.5M
20260430T12Z_MSC_GDPS_WindSpeed_IsbL-0700_LatLon0.15_PT078H.grib2 2026-04-30 16:13 1.5M
20260430T12Z_MSC_GDPS_WindSpeed_IsbL-0750_LatLon0.15_PT078H.grib2 2026-04-30 16:13 1.6M
20260430T12Z_MSC_GDPS_WindSpeed_IsbL-0800_LatLon0.15_PT078H.grib2 2026-04-30 16:13 1.7M
20260430T12Z_MSC_GDPS_WindSpeed_IsbL-0850_LatLon0.15_PT078H.grib2 2026-04-30 16:13 1.7M
20260430T12Z_MSC_GDPS_WindSpeed_IsbL-0875_LatLon0.15_PT078H.grib2 2026-04-30 16:13 1.8M
20260430T12Z_MSC_GDPS_WindSpeed_IsbL-0900_LatLon0.15_PT078H.grib2 2026-04-30 16:13 1.8M
20260430T12Z_MSC_GDPS_WindSpeed_IsbL-0925_LatLon0.15_PT078H.grib2 2026-04-30 16:13 1.8M
20260430T12Z_MSC_GDPS_WindSpeed_IsbL-0950_LatLon0.15_PT078H.grib2 2026-04-30 16:13 1.9M
20260430T12Z_MSC_GDPS_WindSpeed_IsbL-0970_LatLon0.15_PT078H.grib2 2026-04-30 16:13 1.9M
20260430T12Z_MSC_GDPS_WindSpeed_IsbL-0985_LatLon0.15_PT078H.grib2 2026-04-30 16:13 1.9M
20260430T12Z_MSC_GDPS_WindSpeed_IsbL-1000_LatLon0.15_PT078H.grib2 2026-04-30 16:13 1.8M
20260430T12Z_MSC_GDPS_WindSpeed_IsbL-1015_LatLon0.15_PT078H.grib2 2026-04-30 16:13 1.8M
20260430T12Z_MSC_GDPS_WindU_AGL-10m_LatLon0.15_PT078H.grib2 2026-04-30 16:13 1.3M
20260430T12Z_MSC_GDPS_WindU_AGL-120m_LatLon0.15_PT078H.grib2 2026-04-30 16:13 1.0M
20260430T12Z_MSC_GDPS_WindU_AGL-40m_LatLon0.15_PT078H.grib2 2026-04-30 16:13 1.0M
20260430T12Z_MSC_GDPS_WindU_AGL-80m_LatLon0.15_PT078H.grib2 2026-04-30 16:13 1.0M
20260430T12Z_MSC_GDPS_WindU_IsbL-0001_LatLon0.15_PT078H.grib2 2026-04-30 16:13 495K
20260430T12Z_MSC_GDPS_WindU_IsbL-0005_LatLon0.15_PT078H.grib2 2026-04-30 16:13 690K
20260430T12Z_MSC_GDPS_WindU_IsbL-0010_LatLon0.15_PT078H.grib2 2026-04-30 16:13 702K
20260430T12Z_MSC_GDPS_WindU_IsbL-0020_LatLon0.15_PT078H.grib2 2026-04-30 16:13 733K
20260430T12Z_MSC_GDPS_WindU_IsbL-0030_LatLon0.15_PT078H.grib2 2026-04-30 16:13 741K
20260430T12Z_MSC_GDPS_WindU_IsbL-0050_LatLon0.15_PT078H.grib2 2026-04-30 16:13 767K
20260430T12Z_MSC_GDPS_WindU_IsbL-0100_LatLon0.15_PT078H.grib2 2026-04-30 16:13 926K
20260430T12Z_MSC_GDPS_WindU_IsbL-0150_LatLon0.15_PT078H.grib2 2026-04-30 16:13 1.0M
20260430T12Z_MSC_GDPS_WindU_IsbL-0175_LatLon0.15_PT078H.grib2 2026-04-30 16:13 1.0M
20260430T12Z_MSC_GDPS_WindU_IsbL-0200_LatLon0.15_PT078H.grib2 2026-04-30 16:13 841K
20260430T12Z_MSC_GDPS_WindU_IsbL-0225_LatLon0.15_PT078H.grib2 2026-04-30 16:13 853K
20260430T12Z_MSC_GDPS_WindU_IsbL-0250_LatLon0.15_PT078H.grib2 2026-04-30 16:13 858K
20260430T12Z_MSC_GDPS_WindU_IsbL-0275_LatLon0.15_PT078H.grib2 2026-04-30 16:13 887K
20260430T12Z_MSC_GDPS_WindU_IsbL-0300_LatLon0.15_PT078H.grib2 2026-04-30 16:13 879K
20260430T12Z_MSC_GDPS_WindU_IsbL-0350_LatLon0.15_PT078H.grib2 2026-04-30 16:13 891K
20260430T12Z_MSC_GDPS_WindU_IsbL-0400_LatLon0.15_PT078H.grib2 2026-04-30 16:13 894K
20260430T12Z_MSC_GDPS_WindU_IsbL-0450_LatLon0.15_PT078H.grib2 2026-04-30 16:13 1.1M
20260430T12Z_MSC_GDPS_WindU_IsbL-0500_LatLon0.15_PT078H.grib2 2026-04-30 16:13 1.1M
20260430T12Z_MSC_GDPS_WindU_IsbL-0550_LatLon0.15_PT078H.grib2 2026-04-30 16:13 1.1M
20260430T12Z_MSC_GDPS_WindU_IsbL-0600_LatLon0.15_PT078H.grib2 2026-04-30 16:13 1.2M
20260430T12Z_MSC_GDPS_WindU_IsbL-0650_LatLon0.15_PT078H.grib2 2026-04-30 16:13 1.2M
20260430T12Z_MSC_GDPS_WindU_IsbL-0700_LatLon0.15_PT078H.grib2 2026-04-30 16:13 1.2M
20260430T12Z_MSC_GDPS_WindU_IsbL-0750_LatLon0.15_PT078H.grib2 2026-04-30 16:13 1.3M
20260430T12Z_MSC_GDPS_WindU_IsbL-0800_LatLon0.15_PT078H.grib2 2026-04-30 16:13 1.4M
20260430T12Z_MSC_GDPS_WindU_IsbL-0850_LatLon0.15_PT078H.grib2 2026-04-30 16:13 1.4M
20260430T12Z_MSC_GDPS_WindU_IsbL-0875_LatLon0.15_PT078H.grib2 2026-04-30 16:13 1.5M
20260430T12Z_MSC_GDPS_WindU_IsbL-0900_LatLon0.15_PT078H.grib2 2026-04-30 16:13 1.5M
20260430T12Z_MSC_GDPS_WindU_IsbL-0925_LatLon0.15_PT078H.grib2 2026-04-30 16:13 1.5M
20260430T12Z_MSC_GDPS_WindU_IsbL-0950_LatLon0.15_PT078H.grib2 2026-04-30 16:13 1.4M
20260430T12Z_MSC_GDPS_WindU_IsbL-0970_LatLon0.15_PT078H.grib2 2026-04-30 16:13 1.4M
20260430T12Z_MSC_GDPS_WindU_IsbL-0985_LatLon0.15_PT078H.grib2 2026-04-30 16:13 1.4M
20260430T12Z_MSC_GDPS_WindU_IsbL-1000_LatLon0.15_PT078H.grib2 2026-04-30 16:13 1.4M
20260430T12Z_MSC_GDPS_WindU_IsbL-1015_LatLon0.15_PT078H.grib2 2026-04-30 16:13 1.4M
20260430T12Z_MSC_GDPS_WindV_AGL-10m_LatLon0.15_PT078H.grib2 2026-04-30 16:13 1.3M
20260430T12Z_MSC_GDPS_WindV_AGL-120m_LatLon0.15_PT078H.grib2 2026-04-30 16:13 1.0M
20260430T12Z_MSC_GDPS_WindV_AGL-40m_LatLon0.15_PT078H.grib2 2026-04-30 16:13 968K
20260430T12Z_MSC_GDPS_WindV_AGL-80m_LatLon0.15_PT078H.grib2 2026-04-30 16:13 1.0M
20260430T12Z_MSC_GDPS_WindV_IsbL-0001_LatLon0.15_PT078H.grib2 2026-04-30 16:13 779K
20260430T12Z_MSC_GDPS_WindV_IsbL-0005_LatLon0.15_PT078H.grib2 2026-04-30 16:13 856K
20260430T12Z_MSC_GDPS_WindV_IsbL-0010_LatLon0.15_PT078H.grib2 2026-04-30 16:13 884K
20260430T12Z_MSC_GDPS_WindV_IsbL-0020_LatLon0.15_PT078H.grib2 2026-04-30 16:13 858K
20260430T12Z_MSC_GDPS_WindV_IsbL-0030_LatLon0.15_PT078H.grib2 2026-04-30 16:13 939K
20260430T12Z_MSC_GDPS_WindV_IsbL-0050_LatLon0.15_PT078H.grib2 2026-04-30 16:13 1.0M
20260430T12Z_MSC_GDPS_WindV_IsbL-0100_LatLon0.15_PT078H.grib2 2026-04-30 16:13 858K
20260430T12Z_MSC_GDPS_WindV_IsbL-0150_LatLon0.15_PT078H.grib2 2026-04-30 16:13 1.0M
20260430T12Z_MSC_GDPS_WindV_IsbL-0175_LatLon0.15_PT078H.grib2 2026-04-30 16:13 1.0M
20260430T12Z_MSC_GDPS_WindV_IsbL-0200_LatLon0.15_PT078H.grib2 2026-04-30 16:13 841K
20260430T12Z_MSC_GDPS_WindV_IsbL-0225_LatLon0.15_PT078H.grib2 2026-04-30 16:13 851K
20260430T12Z_MSC_GDPS_WindV_IsbL-0250_LatLon0.15_PT078H.grib2 2026-04-30 16:13 850K
20260430T12Z_MSC_GDPS_WindV_IsbL-0275_LatLon0.15_PT078H.grib2 2026-04-30 16:13 936K
20260430T12Z_MSC_GDPS_WindV_IsbL-0300_LatLon0.15_PT078H.grib2 2026-04-30 16:13 927K
20260430T12Z_MSC_GDPS_WindV_IsbL-0350_LatLon0.15_PT078H.grib2 2026-04-30 16:13 879K
20260430T12Z_MSC_GDPS_WindV_IsbL-0400_LatLon0.15_PT078H.grib2 2026-04-30 16:13 881K
20260430T12Z_MSC_GDPS_WindV_IsbL-0450_LatLon0.15_PT078H.grib2 2026-04-30 16:13 881K
20260430T12Z_MSC_GDPS_WindV_IsbL-0500_LatLon0.15_PT078H.grib2 2026-04-30 16:13 887K
20260430T12Z_MSC_GDPS_WindV_IsbL-0550_LatLon0.15_PT078H.grib2 2026-04-30 16:13 1.1M
20260430T12Z_MSC_GDPS_WindV_IsbL-0600_LatLon0.15_PT078H.grib2 2026-04-30 16:13 1.1M
20260430T12Z_MSC_GDPS_WindV_IsbL-0650_LatLon0.15_PT078H.grib2 2026-04-30 16:13 1.2M
20260430T12Z_MSC_GDPS_WindV_IsbL-0700_LatLon0.15_PT078H.grib2 2026-04-30 16:13 1.2M
20260430T12Z_MSC_GDPS_WindV_IsbL-0750_LatLon0.15_PT078H.grib2 2026-04-30 16:13 1.3M
20260430T12Z_MSC_GDPS_WindV_IsbL-0800_LatLon0.15_PT078H.grib2 2026-04-30 16:13 1.3M
20260430T12Z_MSC_GDPS_WindV_IsbL-0850_LatLon0.15_PT078H.grib2 2026-04-30 16:13 1.4M
20260430T12Z_MSC_GDPS_WindV_IsbL-0875_LatLon0.15_PT078H.grib2 2026-04-30 16:13 1.4M
20260430T12Z_MSC_GDPS_WindV_IsbL-0900_LatLon0.15_PT078H.grib2 2026-04-30 16:13 1.5M
20260430T12Z_MSC_GDPS_WindV_IsbL-0925_LatLon0.15_PT078H.grib2 2026-04-30 16:13 1.5M
20260430T12Z_MSC_GDPS_WindV_IsbL-0950_LatLon0.15_PT078H.grib2 2026-04-30 16:13 1.4M
20260430T12Z_MSC_GDPS_WindV_IsbL-0970_LatLon0.15_PT078H.grib2 2026-04-30 16:13 1.4M
20260430T12Z_MSC_GDPS_WindV_IsbL-0985_LatLon0.15_PT078H.grib2 2026-04-30 16:13 1.4M
20260430T12Z_MSC_GDPS_WindV_IsbL-1000_LatLon0.15_PT078H.grib2 2026-04-30 16:13 1.4M
20260430T12Z_MSC_GDPS_WindV_IsbL-1015_LatLon0.15_PT078H.grib2 2026-04-30 16:13 1.3M